Helicity
47 32 13 53 40 42 58 82 141 235 170 169 182 141 145 136 146 204 213 248 210 185 208 215 282 279 228 234 210 157 139 127
50 46 44 36 51 45 84 95 74 278 218 179 243 199 152 170 165 148 222 252 232 204 223 244 263 283 261 261 254 259 219 160
46 43 51 -6 55 97 43 77 51 138 193 205 278 229 190 180 184 194 181 252 277 295 239 259 318 314 288 308 329 339 255 198
27 36 36 42 27 83 59 60 80 126 219 216 216 199 197 207 200 216 187 219 273 312 281 320 350 358 389 392 392 353 337 272
111 131 34 44 54 22 61 43 77 85 178 240 209 243 189 251 230 205 194 206 217 265 315 366 408 415 392 422 408 365 351 298
464 411 212 404 66 54 20 62 71 71 105 232 201 229 211 227 231 185 192 188 235 250 273 332 459 494 471 518 435 389 377 380
161 198 214 247 279 383 219 67 44 107 89 215 191 205 189 198 187 227 253 284 270 308 288 360 447 529 529 561 475 457 416 343
152 150 145 50 94 206 393 244 159 83 97 152 144 168 157 153 164 249 285 289 302 328 328 403 467 499 496 496 508 501 494 431
273 222 407 227 231 73 206 285 327 354 280 121 139 121 138 152 147 181 230 254 311 366 411 418 427 493 522 448 487 518 459 344
324 350 538 710 660 548 335 344 311 296 374 372 262 100 101 133 120 135 164 159 211 279 340 403 423 487 485 478 448 440 435 321
478 579 576 619 844 917 672 557 439 447 444 456 474 368 341 225 115 108 140 147 166 237 338 370 412 441 428 469 366 321 352 303
321 334 382 609 656 791 996 959 866 733 722 677 675 621 578 522 436 340 242 117 138 201 262 318 350 327 418 460 287 264 309 284
251 261 199 405 457 641 926 1066 1135 978 903 850 785 722 717 766 722 593 566 429 339 129 219 279 275 312 427 439 351 256 299 310
12 121 167 95 262 366 498 844 892 939 910 971 918 915 930 933 945 933 747 699 575 528 572 275 294 357 446 392 366 307 341 305
-55 -55 -59 -57 -87 -22 18 233 418 628 640 741 745 824 765 891 926 943 1000 999 736 683 811 598 768 636 331 304 330 240 331 323
-23 -38 -34 -32 -47 -74 -119 -121 -79 124 391 631 752 666 673 711 775 804 874 931 920 929 734 713 666 770 632 581 421 305 361 392
-16 -11 -5 -20 -16 -61 -71 -45 -90 -102 -49 91 149 321 398 362 484 358 674 826 791 816 943 648 635 756 827 853 781 550 482 319
4 -4 -15 -20 -31 -24 -47 -69 -44 -75 -88 -86 -67 -16 128 175 209 381 529 479 600 522 544 858 705 693 741 907 770 676 684 549
-19 -16 -21 -28 -30 -55 -62 -58 -50 -47 -52 -44 -40 -46 -38 -51 30 89 133 113 238 384 291 375 504 501 828 1030 896 637 729 429
Wind_Speed
95 90 84 63 72 72 72 70 60 57 54 55 51 51 46 51 48 42 50 64 66 66 58 56 49 51 42 35 31 37 27 22
103 100 98 96 78 76 67 78 77 63 61 62 62 61 57 54 54 49 49 62 66 63 66 57 52 54 50 44 39 33 29 30
111 104 101 102 87 82 76 68 80 73 67 64 64 63 64 57 56 52 57 57 62 68 70 64 57 55 52 51 45 40 37 35
98 102 106 100 90 78 88 78 81 83 73 70 68 75 72 68 64 68 66 58 61 65 68 66 64 62 60 55 51 48 46 41
74 79 98 107 100 94 84 94 82 82 72 72 78 78 80 71 66 64 71 62 61 64 65 66 65 67 64 63 58 55 49 52
74 75 73 67 97 110 106 93 79 86 82 75 75 77 74 73 71 70 65 66 68 68 67 66 64 65 68 68 66 63 58 54
73 68 66 64 65 70 77 107 102 85 87 77 76 82 78 77 77 75 71 70 66 70 69 67 65 64 67 69 70 68 66 62
66 63 65 66 66 65 63 69 90 83 87 74 77 85 79 82 76 74 75 72 68 75 70 68 66 64 64 66 71 71 70 64
55 58 55 57 61 55 56 52 51 51 66 80 77 86 82 83 86 79 77 77 80 77 74 72 68 65 61 62 66 69 69 69
52 40 42 47 43 41 42 42 41 32 43 51 64 76 80 81 80 84 84 88 85 78 77 77 75 70 67 61 63 68 67 67
52 43 46 53 42 39 25 24 31 35 34 38 46 52 61 77 80 90 92 93 93 82 81 79 76 73 69 65 64 63 66 66
46 45 54 43 38 35 26 18 24 23 31 35 37 42 48 51 58 71 90 102 98 89 82 77 77 72 69 66 62 65 68 68
54 51 44 51 49 48 38 29 23 21 26 27 29 34 38 41 47 54 61 69 72 94 80 75 76 74 70 68 64 60 66 67
62 64 58 47 46 42 44 36 31 24 23 24 26 29 31 35 38 43 47 53 56 56 55 74 73 68 66 67 66 65 66 68
55 62 54 51 40 40 34 42 38 32 26 24 24 27 29 31 33 36 40 44 46 46 50 42 42 54 70 68 68 66 69 70
58 60 54 46 42 39 44 41 38 37 32 31 31 31 33 33 35 38 38 38 44 45 43 36 40 41 50 63 72 66 68 70
62 61 61 61 47 50 50 37 43 43 38 33 33 34 34 35 34 35 33 38 51 43 39 34 32 37 43 48 55 63 78 76
61 56 59 63 62 50 51 52 46 48 40 37 36 35 36 40 42 44 45 46 49 50 48 38 40 40 41 47 52 50 53 58
71 66 62 60 58 61 56 57 57 51 49 43 44 44 44 42 43 44 46 47 50 55 52 44 44 41 46 44 52 48 48 51
Wind_Direction
280 280 276 271 262 261 256 247 240 231 229 231 231 230 232 236 232 227 220 225 227 228 231 230 225 227 223 221 213 234 230 228
278 274 273 271 265 264 252 251 251 232 228 227 231 228 233 233 233 230 223 226 226 228 232 228 227 227 226 225 226 220 225 234
279 275 269 267 264 259 260 250 247 245 234 233 233 228 231 231 229 228 229 224 224 229 231 230 227 229 229 226 222 226 235 229
279 274 269 262 262 258 254 254 249 244 234 236 234 235 236 236 233 233 231 225 226 227 229 232 229 231 231 228 225 225 231 230
294 288 271 261 258 259 256 253 248 244 234 234 234 235 235 235 228 230 234 230 230 230 228 231 229 233 233 231 231 233 236 237
307 297 293 290 260 255 254 250 248 244 244 233 234 231 234 233 233 230 232 230 233 233 232 229 229 232 234 231 234 235 237 238
313 308 297 292 286 273 259 248 248 244 244 234 235 234 235 234 234 232 230 235 234 232 231 231 231 232 233 233 234 236 238 245
317 312 304 292 284 276 266 262 245 243 242 238 236 237 233 234 231 230 232 233 234 236 232 233 232 232 234 236 235 237 239 242
331 327 309 307 289 281 267 262 255 253 249 242 238 240 240 238 236 235 236 239 238 240 237 236 236 235 233 232 235 237 238 241
346 332 332 323 316 298 271 258 256 267 257 254 250 242 244 246 246 244 243 243 242 241 239 240 239 235 232 230 234 232 235 236
350 348 348 339 333 323 297 272 265 263 269 269 261 260 256 253 251 249 246 247 245 244 243 241 239 235 232 229 233 231 232 236
354 356 352 350 351 347 343 310 289 281 283 275 271 269 268 267 264 261 252 247 247 245 243 241 238 234 233 231 229 230 230 234
353 351 352 356 353 4 3 1 322 303 300 290 285 281 280 280 275 271 265 257 255 247 242 240 238 238 233 229 227 229 233 234
356 357 354 352 348 355 360 0 350 341 327 309 301 296 296 291 286 281 273 266 259 256 250 243 239 236 231 231 231 236 235 235
352 357 354 352 348 349 350 2 349 346 340 329 321 307 308 306 303 297 285 280 271 257 255 248 251 248 244 239 235 238 238 240
352 355 353 352 351 349 351 352 350 349 346 336 320 319 311 314 309 304 297 292 282 272 268 262 260 260 264 257 251 239 242 241
351 351 352 352 349 352 353 350 354 352 354 342 337 319 320 318 315 293 312 295 285 299 268 268 267 270 274 272 264 258 252 242
343 342 345 348 349 344 347 348 348 350 346 341 331 325 333 322 314 316 310 298 291 288 285 276 269 276 279 280 275 274 270 261
350 344 341 343 344 347 344 346 348 345 344 338 338 334 328 316 317 317 310 302 293 286 281 276 277 292 283 279 283 278 276 267